Pasco, WA
on Sunday, November 4, 2012

Sunday
Previous Day Next Day
Daily Summary
 ActualAverageRecord
Temperature
Mean Temperature °F / °C 45°F / 7°C  
Max Temperature 71°F / 22°C 56°F / 13°C 71°F / 21°C (2007)
Min Temperature 47°F / 8°C 35°F / 2°C 14°F / -10°C (2002)
Degree Days
Heating Degree Days 6 20  
Month to date heating degree days 46 77  
Since 1 July heating degree days 490 595  
Cooling Degree Days 0 0  
Month to date cooling degree days 0 0  
Year to date cooling degree days 788 710  
Growing Degree Days8 (Base °F / °C )  
Moisture
Dew Point 51°F / 11°C   
Average Humidity 74    
Maximum Humidity 100    
Minimum Humidity 47    
Precipitation
Precipitation 0.00 in / 0.00 cm in / cm 0.35 in / 0.89 cm (1973)
Month to date precipitation 0.08  
Year to date precipitation 7.54  
Snow
Snow 0.00 in / 0.00 cm in / cm in / cm ()
Snow Depth 0.00 in / 0.00 cm   
Wind
Wind Speed 6 mph / 10 km/h   
Max Wind Speed 16 mph / 26 km/h   
Max Gust Speed 18 mph / 29 km/h   
Visibility 10 miles / 16 kilometers   
Events     

Key: T is trace of precipitation, MM is missing value
Source: NWS Daily Summary
Time(PST)TemperatureDew PointHumidity Pressure Visibility Wind DirectionWind SpeedGust SpeedPrecipitationEvents Conditions
12:53 AM 59.0°F / 15.0°C 50.0°F / 10.0°C 72% 30.18 in / 1022.0 hPa 10.0 miles / 16.1 kilometers WSW 8.1 mph / 13.0 km/h - N/A   Overcast
1:53 AM 59.0°F / 15.0°C 50.0°F / 10.0°C 72% 30.19 in / 1022.3 hPa 10.0 miles / 16.1 kilometers WSW 6.9 mph / 11.1 km/h - N/A   Overcast
1:53 AM 57.0°F / 13.9°C 50.0°F / 10.0°C 77% 30.20 in / 1022.7 hPa 10.0 miles / 16.1 kilometers Calm Calm - N/A   Overcast
2:53 AM 53.1°F / 11.7°C 50.0°F / 10.0°C 89% 30.20 in / 1022.6 hPa 10.0 miles / 16.1 kilometers North 3.5 mph / 5.6 km/h - N/A   Scattered Clouds
3:53 AM 50.0°F / 10.0°C 48.0°F / 8.9°C 93% 30.23 in / 1023.6 hPa 10.0 miles / 16.1 kilometers NW 5.8 mph / 9.3 km/h - N/A   Partly Cloudy
4:53 AM 48.9°F / 9.4°C 46.9°F / 8.3°C 93% 30.24 in / 1023.8 hPa 10.0 miles / 16.1 kilometers East 3.5 mph / 5.6 km/h - N/A   Clear
5:53 AM 46.9°F / 8.3°C 46.0°F / 7.8°C 97% 30.22 in / 1023.4 hPa 10.0 miles / 16.1 kilometers East 4.6 mph / 7.4 km/h - N/A   Scattered Clouds
6:53 AM 48.9°F / 9.4°C 46.9°F / 8.3°C 93% 30.26 in / 1024.6 hPa 10.0 miles / 16.1 kilometers North 5.8 mph / 9.3 km/h - N/A   Overcast
7:53 AM 52.0°F / 11.1°C 50.0°F / 10.0°C 93% 30.28 in / 1025.4 hPa 10.0 miles / 16.1 kilometers East 3.5 mph / 5.6 km/h - N/A   Overcast
8:53 AM 57.9°F / 14.4°C 52.0°F / 11.1°C 81% 30.28 in / 1025.4 hPa 10.0 miles / 16.1 kilometers SE 4.6 mph / 7.4 km/h - N/A   Overcast
9:53 AM 60.1°F / 15.6°C 52.0°F / 11.1°C 75% 30.28 in / 1025.3 hPa 10.0 miles / 16.1 kilometers SSE 3.5 mph / 5.6 km/h - N/A   Overcast
10:53 AM 64.9°F / 18.3°C 53.1°F / 11.7°C 65% 30.28 in / 1025.2 hPa 10.0 miles / 16.1 kilometers ESE 3.5 mph / 5.6 km/h - N/A   Overcast
11:53 AM 66.0°F / 18.9°C 53.1°F / 11.7°C 63% 30.27 in / 1025.1 hPa 10.0 miles / 16.1 kilometers Calm Calm - N/A   Overcast
12:53 PM 66.9°F / 19.4°C 51.1°F / 10.6°C 57% 30.27 in / 1025.0 hPa 10.0 miles / 16.1 kilometers Calm Calm - N/A   Mostly Cloudy
1:53 PM 69.1°F / 20.6°C 48.9°F / 9.4°C 49% 30.27 in / 1024.8 hPa 10.0 miles / 16.1 kilometers South 8.1 mph / 13.0 km/h - N/A   Mostly Cloudy
2:53 PM 69.1°F / 20.6°C 48.9°F / 9.4°C 49% 30.27 in / 1025.0 hPa 10.0 miles / 16.1 kilometers SSW 5.8 mph / 9.3 km/h - N/A   Mostly Cloudy
3:53 PM 68.0°F / 20.0°C 52.0°F / 11.1°C 56% 30.27 in / 1025.1 hPa 10.0 miles / 16.1 kilometers WSW 8.1 mph / 13.0 km/h - N/A   Clear
4:53 PM 64.9°F / 18.3°C 52.0°F / 11.1°C 63% 30.26 in / 1024.7 hPa 10.0 miles / 16.1 kilometers South 9.2 mph / 14.8 km/h - N/A   Scattered Clouds
5:53 PM 63.0°F / 17.2°C 53.1°F / 11.7°C 70% 30.27 in / 1024.9 hPa 10.0 miles / 16.1 kilometers SSW 6.9 mph / 11.1 km/h - N/A   Clear
6:53 PM 63.0°F / 17.2°C 53.1°F / 11.7°C 70% 30.26 in / 1024.6 hPa 10.0 miles / 16.1 kilometers South 8.1 mph / 13.0 km/h - N/A   Clear
7:53 PM 63.0°F / 17.2°C 53.1°F / 11.7°C 70% 30.25 in / 1024.2 hPa 10.0 miles / 16.1 kilometers South 11.5 mph / 18.5 km/h - N/A   Clear
9:53 PM 62.1°F / 16.7°C 53.1°F / 11.7°C 72% 30.27 in / 1024.8 hPa 10.0 miles / 16.1 kilometers South 15.0 mph / 24.1 km/h - N/A   Clear
10:53 PM 61.0°F / 16.1°C 53.1°F / 11.7°C 75% 30.26 in / 1024.6 hPa 10.0 miles / 16.1 kilometers SSW 13.8 mph / 22.2 km/h - N/A   Clear
Moon Phase
Nov. 04 Nov. 06 Nov. 13 Nov. 20 Nov. 28
Sunrise:06:42 AM (PST) Moon Rise:09:17 PM (PST)11/4
Sunset:04:36 PM (PST) Moon Set:11:33 AM (PST)11/4

Copyright © 2014 The Weather Underground, Inc.